Location: Newark
(45.8944°N, 12.5886°E)
Time: 17:14:03
(UTC+00:00)

N. Korean satellite - Visible Passes

Search period start: 27 January 2020 00:00
Search period end: 06 February 2020 00:00
Orbit: 454 x 507 km, 97.2° (Epoch: 27 January)

Date Brightness Start Highest point End Pass type
(mag) Time Alt. Az. Time Alt. Az. Time Alt. Az.
27 Jan 7.0 04:53:05 10° NNE 04:56:40 63° ESE 05:00:15 10° S visible
27 Jan 9.7 17:05:24 10° SW 17:07:38 16° W 17:09:55 10° NW visible
28 Jan 8.6 04:27:52 10° NNE 04:31:05 30° E 04:34:20 10° SSE visible
28 Jan 7.9 06:01:38 10° NNW 06:04:19 20° WNW 06:07:00 10° WSW visible
28 Jan 8.6 16:38:52 10° SSW 16:41:58 32° W 16:45:07 10° NNW visible
29 Jan 9.7 04:03:09 10° NE 04:05:25 16° E 04:07:43 10° SE visible
29 Jan 7.1 05:35:37 10° N 05:38:58 37° WNW 05:42:21 10° SW visible
30 Jan 6.5 05:09:54 10° N 05:13:31 79° WNW 05:17:11 10° SSW visible
30 Jan 10.3 17:24:02 10° W 17:24:38 10° W 17:25:15 10° WNW visible
31 Jan 7.6 04:44:29 10° NNE 04:48:00 49° E 04:51:34 10° S visible
31 Jan 9.6 16:56:16 10° SW 16:58:54 21° W 17:01:35 10° NW visible
01 Feb 9.0 04:19:22 10° NE 04:22:24 24° E 04:25:28 10° SSE visible
01 Feb 7.7 05:52:44 10° NNW 05:55:43 25° WNW 05:58:44 10° SW visible
02 Feb 10.0 03:54:58 10° ENE 03:56:42 13° E 03:58:28 10° ESE visible
02 Feb 6.8 05:26:50 10° N 05:30:21 47° WNW 05:33:53 10° SSW visible
03 Feb 6.7 05:01:14 10° NNE 05:04:53 82° ESE 05:08:34 10° S visible
03 Feb 10.0 17:14:09 10° WSW 17:15:53 13° W 17:17:37 10° WNW visible
04 Feb 8.1 04:35:53 10° NNE 04:39:20 39° E 04:42:48 10° SSE visible
04 Feb 9.2 16:47:14 10° SSW 16:50:10 26° W 16:53:09 10° NW visible
05 Feb 9.4 04:10:55 10° NE 04:13:42 20° E 04:16:28 10° SE visible
05 Feb 7.4 05:43:52 10° N 05:47:07 30° WNW 05:50:23 10° SW visible
